Home   Weather   Fernando de Noronha   Past weeks

Flag for Brazil Past Weather in Fernando de Noronha, Pernambuco, Brazil — Yesterday and Last 2 Weeks

Now
75 °F

Passing clouds.


Feels Like: 74 °F
Forecast: 80 / 82 °F
Wind: 5 mph from South

Location: Natal Aeroporto

Current Time: Jan 23, 2017 at 2:41:25 am

Latest Report: Jan 23, 2017 at 2:00 am


Visibility: N/A

Pressure: 29.86 "Hg

Humidity: 94%

Dew Point: 73 °F

Location of Fernando de NoronhaLocation

Past Weather in Fernando de Noronha — Graph

°F

Fernando de Noronha Temperature Yesterday

Maximum temperature yesterday: 81 °F (at 12:00 am)
Minimum temperature yesterday: 73 °F (at 12:27 pm)
Average temperature yesterday: 76 °F

High & Low Weather Summary for the Past Weeks

 TemperatureHumidityPressure
High90 °F (Jan 14, 1:00 pm)100% (Jan 22, 12:27 pm)29.95 "Hg (Jan 22, 12:27 pm)
Low73 °F (Jan 8, 6:00 am)43% (Jan 17, 1:00 pm)29.77 "Hg (Jan 14, 3:00 pm)
Average81 °F74%29.86 "Hg
* Reported Jan 8 1:00 am — Jan 23 1:00 am, Fernando de Noronha, Weather by CustomWeather, © 2017

Note: Actual official high and low records may vary slightly from our data, if they occured in-between our weather recording intervals... More about our weather records

Advertising

Fernando de Noronha Weather History for the Previous 24 Hours

Scroll right to see more
 ConditionsComfort  
Time TempWeatherWind HumidityBarometerVisibility
1:00 am
Mon, Jan 23
75 °FPassing clouds.5 mph94%29.89 "HgN/A
12:00 am75 °FPassing clouds.2 mph94%29.92 "HgN/A
11:00 pm
Sun, Jan 22
75 °FPassing clouds.2 mph94%29.95 "Hg5 mi
10:00 pm75 °FLight rain. Fog.5 mph94%N/A2 mi
9:00 pm75 °FLight rain. Fog.3 mph94%N/A2 mi
8:00 pm75 °FLight rain. Fog.5 mph94%N/A2 mi
7:00 pm73 °FLight rain. Fog.5 mph94%N/A2 mi
6:00 pm73 °FLight rain. Fog.3 mph94%N/A2 mi
5:00 pm73 °FLight rain. Fog.3 mph94%N/A2 mi
4:00 pm73 °FLight rain. Fog.6 mph94%29.89 "Hg2 mi
3:00 pm73 °FRain. More clouds than sun.2 mph94%29.92 "Hg2 mi
2:00 pm73 °FRain. More clouds than sun.8 mph94%29.92 "Hg2 mi
1:00 pm73 °FHeavy rain. Cloudy.12 mph100%29.92 "Hg2 mi
12:27 pm73 °FRain. Cloudy.17 mph100%29.95 "Hg2 mi
12:00 pm75 °FLight rain. Broken clouds.9 mph94%29.92 "Hg5 mi
11:00 am75 °FStrong thunderstorms. Partly sunny.16 mph94%29.95 "Hg1 mi
10:32 am79 °FThunderstorms. Partly sunny.12 mph84%29.92 "HgN/A
10:00 am79 °FScattered showers. Partly sunny.8 mph89%29.92 "HgN/A
9:00 am77 °FScattered showers. Broken clouds.6 mph94%29.92 "HgN/A
8:00 am77 °FScattered showers. Broken clouds.6 mph94%29.89 "HgN/A
7:00 am77 °FScattered showers. Scattered clouds.6 mph89%29.86 "HgN/A
6:00 am77 °FPassing clouds.6 mph89%29.86 "HgN/A
5:00 am77 °FPassing clouds.6 mph89%29.83 "HgN/A
4:00 am79 °FPassing clouds.8 mph84%29.83 "HgN/A
3:00 am81 °FPassing clouds.8 mph79%29.86 "HgN/A
2:00 am81 °FPassing clouds.10 mph79%29.86 "HgN/A
Weather by CustomWeather, © 2017

See weather overviewHow to use our weather pages